Temperature
4 4 4 4 4 4 4 4 4 4 4 4 4 4 4 4 4 4 4 4 4 4 4 4 4 4 4 4 4 4 4 4 4 4 4 4 4 4 4 4 4 4 4
3 3 3 3 3 3 3 3 4 4 4 4 4 4 4 4 4 4 4 4 4 4 4 4 4 4 4 4 4 4 4 4 4 3 4 4 4 4 4 4 4 4 4
2 3 3 3 3 3 3 3 3 3 3 3 3 3 3 3 3 3 3 3 3 3 3 3 3 3 3 3 3 3 3 3 3 3 3 3 3 3 3 4 3 3 3
2 2 2 2 2 2 2 2 2 2 2 3 3 3 3 3 3 3 3 3 3 3 3 3 3 3 3 3 3 3 3 3 3 3 3 3 3 3 3 3 3 3 3
1 1 1 2 2 2 2 2 2 2 2 2 2 2 2 2 2 2 2 2 2 2 2 2 2 2 2 2 2 2 2 2 2 2 2 2 2 2 2 2 2 2 2
1 1 1 1 1 1 1 1 1 1 1 1 1 1 2 2 2 2 1 1 1 2 2 2 2 2 2 2 2 2 2 2 2 2 2 2 2 2 2 2 2 1 1
-0 -0 0 0 0 0 0 0 0 0 1 1 1 1 1 1 1 1 1 1 1 1 1 1 1 1 1 1 1 1 1 1 1 1 1 1 1 1 1 1 1 1 1
-1 -1 -1 -1 -0 -0 -0 -0 -0 -0 0 0 0 0 0 0 0 0 0 0 1 1 1 1 1 1 1 1 1 1 1 1 1 1 1 1 1 1 0 0 0 0 0
-2 -2 -1 -1 -1 -1 -1 -1 -1 -1 -1 -1 -1 -1 -0 -0 -0 -0 -0 -0 -0 -0 0 0 0 0 0 0 0 0 0 0 0 0 0 0 0 0 -0 -0 -0 -1 -1
-2 -2 -2 -2 -2 -2 -1 -1 -1 -1 -1 -1 -1 -1 -1 -1 -1 -1 -1 -1 -1 -1 -1 -1 -1 -0 -0 -0 -1 -1 -0 -0 -0 -0 -0 -0 -0 -0 -1 -1 -1 -1 -1
-3 -3 -2 -2 -2 -2 -2 -2 -2 -2 -2 -2 -2 -2 -2 -2 -2 -2 -1 -1 -1 -1 -1 -1 -1 -1 -1 -1 -1 -1 -1 -1 -1 -1 -1 -1 -1 -1 -1 -1 -1 -2 -2
-3 -3 -3 -3 -3 -3 -3 -3 -3 -3 -3 -3 -3 -2 -2 -2 -2 -2 -2 -2 -2 -2 -2 -2 -2 -2 -2 -2 -2 -2 -2 -2 -2 -2 -2 -2 -2 -2 -2 -2 -2 -2 -2
-3 -3 -3 -3 -3 -3 -3 -3 -3 -3 -3 -3 -3 -3 -3 -3 -3 -3 -3 -3 -3 -3 -3 -3 -2 -2 -2 -2 -2 -2 -2 -2 -2 -2 -2 -2 -2 -2 -3 -3 -3 -3 -3
-4 -4 -4 -4 -4 -4 -4 -4 -4 -4 -4 -4 -4 -4 -4 -4 -4 -3 -3 -3 -3 -3 -3 -3 -3 -3 -3 -3 -3 -3 -3 -3 -3 -3 -3 -3 -3 -3 -3 -3 -3 -3 -3
-5 -5 -5 -4 -4 -4 -4 -4 -5 -5 -5 -5 -5 -5 -5 -5 -4 -4 -4 -4 -4 -4 -4 -4 -4 -3 -3 -3 -3 -3 -3 -3 -4 -4 -4 -4 -4 -4 -4 -4 -4 -4 -4
-5 -5 -5 -5 -5 -5 -5 -5 -5 -5 -5 -5 -5 -5 -5 -5 -5 -5 -4 -4 -4 -4 -4 -4 -4 -4 -4 -4 -4 -4 -4 -4 -4 -4 -4 -4 -4 -4 -4 -4 -4 -5 -5
-6 -6 -6 -6 -6 -6 -6 -6 -6 -6 -6 -6 -6 -6 -5 -5 -5 -5 -5 -5 -5 -5 -5 -5 -5 -5 -5 -5 -5 -5 -5 -5 -5 -5 -5 -5 -5 -5 -5 -5 -5 -5 -5
-7 -7 -6 -6 -6 -6 -7 -7 -7 -7 -6 -6 -6 -6 -6 -6 -6 -5 -5 -5 -5 -5 -5 -5 -5 -5 -5 -5 -5 -5 -5 -5 -5 -5 -5 -5 -5 -6 -6 -6 -6 -6 -6
-7 -7 -7 -7 -7 -7 -7 -7 -7 -7 -7 -7 -7 -7 -6 -6 -6 -6 -6 -6 -6 -6 -6 -6 -6 -6 -6 -6 -6 -6 -6 -6 -6 -6 -6 -6 -6 -6 -6 -6 -6 -6 -6
-8 -8 -7 -7 -7 -7 -7 -7 -7 -7 -7 -7 -7 -7 -7 -7 -7 -7 -7 -6 -6 -6 -6 -6 -6 -6 -6 -6 -6 -6 -6 -6 -6 -6 -6 -6 -6 -6 -6 -7 -7 -7 -7
-8 -8 -8 -8 -8 -8 -8 -8 -8 -8 -8 -8 -8 -8 -8 -8 -8 -8 -7 -7 -7 -7 -7 -7 -7 -7 -7 -7 -7 -7 -7 -7 -7 -7 -6 -7 -7 -7 -7 -7 -7 -7 -7
-9 -9 -8 -8 -8 -8 -8 -8 -8 -8 -8 -8 -8 -8 -8 -8 -8 -8 -8 -8 -8 -8 -8 -8 -7 -7 -7 -7 -7 -7 -7 -7 -7 -7 -7 -7 -7 -7 -7 -7 -7 -7 -7
-9 -9 -9 -9 -9 -9 -9 -9 -9 -9 -9 -9 -9 -9 -9 -9 -9 -9 -9 -8 -8 -8 -8 -8 -8 -8 -8 -7 -7 -7 -7 -7 -7 -7 -7 -7 -7 -7 -7 -8 -8 -8 -8
-10 -10 -10 -9 -9 -9 -9 -10 -9 -9 -9 -9 -9 -9 -9 -9 -9 -9 -9 -9 -9 -8 -8 -8 -8 -8 -8 -8 -8 -8 -8 -8 -7 -7 -7 -8 -8 -8 -8 -8 -8 -8 -8
-10 -10 -10 -10 -10 -10 -10 -10 -10 -10 -10 -10 -10 -10 -10 -10 -9 -9 -9 -9 -9 -9 -9 -9 -9 -8 -8 -8 -8 -8 -8 -8 -8 -8 -8 -8 -8 -8 -8 -8 -8 -8 -8
-11 -11 -11 -10 -10 -10 -10 -10 -10 -10 -10 -10 -10 -10 -10 -10 -10 -10 -10 -10 -9 -9 -9 -9 -9 -9 -9 -9 -8 -8 -8 -8 -8 -8 -8 -8 -8 -8 -8 -8 -8 -9 -9
Wind_Speed
2 2 3 3 3 3 2 2 2 1 1 2 2 2 1 2 2 2 2 2 3 2 2 3 3 3 3 3 3 3 4 4 5 4 3 2 3 4 3 5 5 6 7
2 3 3 3 3 3 2 2 2 1 1 1 2 2 2 2 2 2 2 3 3 3 3 3 3 2 3 3 3 4 4 4 5 5 4 3 4 4 3 4 4 5 7
2 3 3 3 2 2 2 1 1 1 1 1 2 2 2 2 2 2 2 3 3 3 3 3 3 3 3 3 3 4 3 3 4 4 4 2 3 2 3 3 4 4 6
2 2 2 2 2 2 1 1 1 1 1 1 1 2 2 2 2 2 2 2 2 2 2 3 3 3 4 3 3 4 3 3 3 3 3 2 2 2 3 3 3 3 4
2 2 1 1 1 2 2 1 1 1 0 0 1 1 1 1 1 1 1 1 2 2 2 2 2 2 2 2 2 3 3 3 3 3 3 3 3 2 3 3 3 3 4
1 1 1 1 1 1 1 1 1 1 1 1 0 0 1 1 1 1 1 2 2 2 2 2 1 2 2 2 2 3 3 4 4 4 4 4 5 4 3 3 3 3 3
1 1 1 1 1 1 1 1 1 1 1 1 1 0 0 0 0 1 1 2 2 2 2 2 1 1 1 2 1 2 2 2 3 5 5 5 5 4 4 4 4 4 5
1 1 1 1 1 1 1 0 0 1 1 0 1 1 1 1 0 1 1 2 2 2 2 2 2 2 1 2 1 2 2 3 4 4 5 5 4 4 4 5 5 4 4
2 2 2 1 1 0 0 0 0 0 1 1 1 1 1 1 1 0 1 1 1 1 1 2 2 2 1 2 2 2 3 3 2 3 4 4 3 3 3 3 3 3 4
2 2 2 1 1 1 1 1 0 0 0 1 1 1 1 1 1 1 1 1 1 1 1 1 2 2 2 1 2 3 4 4 3 2 3 3 4 3 3 4 4 4 3
3 2 2 2 1 1 1 1 0 0 0 1 1 2 2 2 1 1 1 1 1 2 2 2 2 1 2 2 3 3 4 4 3 3 2 2 2 2 3 3 3 4 4
3 3 2 2 2 1 1 1 1 0 0 0 1 1 2 2 2 1 2 2 2 2 2 2 2 2 3 3 3 3 3 3 2 2 2 2 2 3 3 3 3 4 4
3 3 3 3 2 2 1 1 1 1 0 1 1 1 2 2 2 2 2 2 3 2 2 3 3 3 3 3 2 2 3 3 2 2 3 3 3 3 2 2 3 3 3
3 3 2 2 2 2 2 1 1 1 1 1 1 2 2 2 2 2 2 2 2 2 2 2 3 3 3 3 2 2 2 2 3 3 3 2 2 2 2 2 2 2 3
3 3 2 2 2 2 2 2 2 2 3 3 3 3 3 3 3 4 3 3 3 3 3 2 2 2 2 2 2 2 2 2 2 2 2 2 2 2 2 2 2 3 3
3 2 2 2 2 2 2 2 4 3 4 5 4 4 3 4 5 5 5 5 4 4 3 3 3 2 3 3 3 3 2 3 3 3 3 3 3 3 3 3 3 3 4
3 2 2 2 2 2 2 2 2 3 4 4 5 5 5 5 5 5 5 4 4 4 3 3 3 3 3 3 3 3 3 3 3 3 3 3 3 3 3 4 4 4 4
3 2 2 2 2 2 2 2 2 2 3 3 4 5 6 6 6 5 4 3 3 2 2 3 3 3 3 3 4 4 3 3 3 3 4 4 4 4 4 4 4 5 5
3 2 2 2 2 2 2 2 2 2 2 3 3 4 6 6 6 5 4 2 2 2 2 3 3 3 4 4 4 4 4 4 4 4 4 4 4 4 5 5 5 6 5
2 4 3 2 2 2 2 2 2 2 2 3 3 4 4 4 3 4 3 3 2 3 3 3 3 3 4 4 4 4 4 4 4 4 4 4 4 5 5 6 5 5 5
3 3 4 3 2 2 2 2 2 2 2 3 3 4 6 4 3 4 4 3 3 4 4 4 3 4 4 4 4 4 5 5 5 5 5 5 4 5 5 5 5 5 4
2 2 2 2 2 2 2 2 2 2 3 3 4 4 6 4 3 4 4 4 4 4 4 4 4 4 4 4 4 5 5 5 5 5 5 5 4 5 5 4 4 4 4
2 2 2 2 2 3 3 2 2 2 3 3 4 4 4 4 4 4 4 5 5 5 5 4 4 5 5 5 5 5 5 6 5 5 5 5 5 5 5 5 5 5 5
2 2 2 2 2 2 2 2 3 3 3 3 4 4 4 4 4 5 5 5 5 5 5 5 5 6 8 7 6 6 6 7 6 6 7 6 5 5 4 5 5 5 5
2 2 2 2 2 2 2 3 3 3 3 4 4 4 4 4 5 5 5 5 6 6 7 7 6 7 8 8 8 7 8 8 8 6 6 5 5 5 5 5 5 5 5
2 2 2 2 2 2 2 3 3 3 3 4 4 4 4 4 5 5 5 5 6 6 7 7 7 8 9 8 9 9 9 8 8 7 6 5 4 4 4 4 5 5 5
Wind_Direction
85 104 108 105 108 119 125 129 135 138 138 152 175 179 186 197 196 190 196 198 200 209 218 220 229 230 217 220 224 227 229 233 245 255 256 254 244 245 244 247 249 249 246
79 84 97 98 108 111 113 115 126 155 159 167 185 182 190 202 204 204 207 208 206 211 215 213 224 224 220 221 221 227 233 234 235 244 253 255 254 253 258 253 256 260 255
80 83 93 97 101 108 111 108 116 136 167 177 184 189 197 203 203 207 215 210 217 225 222 220 223 219 222 223 221 225 228 232 235 238 251 269 274 263 265 266 257 257 258
77 77 80 92 94 92 90 95 108 131 148 198 198 198 204 203 198 202 211 212 220 235 237 234 232 228 231 227 226 226 224 224 228 230 242 255 269 272 257 263 264 260 259
82 82 65 67 79 77 67 60 63 74 100 197 205 200 202 213 200 194 206 214 223 227 239 244 244 238 240 236 230 226 222 221 221 223 232 242 247 256 251 253 261 271 268
71 75 61 57 63 69 64 54 57 55 64 70 68 200 209 205 169 199 219 214 223 228 236 257 273 242 224 231 228 224 225 225 226 229 236 241 246 251 253 249 252 265 269
43 60 75 63 51 56 93 87 59 46 52 58 33 43 5 282 181 211 235 233 224 231 240 246 262 267 243 234 229 223 234 253 248 240 242 248 254 252 249 251 250 254 261
20 22 47 43 26 17 68 90 46 36 21 348 338 350 356 354 3 217 230 236 228 237 249 249 245 251 251 232 242 254 256 259 256 251 248 255 262 263 249 252 257 266 283
6 353 353 358 336 338 356 349 331 334 350 336 315 309 328 337 4 252 241 223 217 257 271 270 262 261 240 222 233 246 256 263 261 242 255 270 281 274 258 250 249 254 267
343 332 336 327 309 326 321 319 299 241 302 332 329 317 316 324 355 347 286 234 234 267 288 286 285 269 257 235 244 250 254 258 255 255 253 267 270 263 243 242 243 246 263
340 335 340 343 346 338 335 340 349 72 42 349 339 335 331 323 328 331 310 270 251 257 268 279 281 277 267 268 264 261 262 260 254 250 256 265 268 262 256 254 252 249 253
346 346 345 344 352 343 347 345 347 57 78 355 349 341 336 331 332 328 333 312 286 268 271 277 276 267 259 261 264 269 270 268 254 243 248 255 257 258 262 265 261 263 266
348 348 346 348 350 348 339 325 323 320 307 311 312 308 317 320 330 337 323 321 310 285 275 278 281 284 276 268 267 266 259 256 248 246 250 257 261 264 269 279 286 284 283
343 347 348 351 350 351 344 328 321 315 309 306 299 297 303 306 311 317 315 310 310 300 281 268 268 273 271 278 271 259 253 252 247 250 258 265 263 258 256 261 269 273 275
338 345 349 352 347 347 346 335 319 309 300 296 292 287 284 290 302 309 304 297 294 285 286 276 266 260 257 261 261 257 252 252 256 265 259 258 260 259 261 262 265 263 261
333 340 342 341 341 339 341 352 2 347 343 334 323 311 304 300 303 299 302 301 297 276 277 261 250 250 250 259 264 265 260 257 260 259 257 254 254 254 258 263 261 258 263
325 324 325 326 325 321 324 332 339 352 357 351 345 338 335 324 316 307 302 303 297 280 268 258 252 252 254 253 259 262 261 262 259 254 253 253 253 254 255 256 254 258 262
326 327 325 313 307 301 304 309 314 322 332 342 349 346 345 342 335 324 314 305 296 282 267 267 267 263 260 259 259 261 261 259 255 254 253 251 250 252 253 254 253 256 261
326 327 325 320 314 309 309 309 314 320 324 329 334 341 347 346 346 342 334 318 303 299 288 272 270 268 265 262 262 264 262 260 259 256 254 251 247 249 252 252 254 255 258
324 339 339 327 323 325 321 317 318 320 322 323 324 327 333 335 338 339 338 330 315 306 302 288 277 274 271 266 264 263 261 259 257 252 255 251 247 246 249 250 251 253 254
324 335 343 337 332 327 321 314 313 313 315 320 319 323 332 329 326 327 327 324 317 309 303 297 290 281 274 271 267 263 260 260 258 255 254 253 248 248 249 248 250 251 253
322 330 333 334 336 336 331 327 323 318 318 320 323 327 332 331 325 321 321 320 314 308 304 298 291 286 281 277 272 268 264 262 260 256 255 253 250 250 249 247 247 248 247
315 324 331 335 337 336 339 335 329 325 323 322 323 324 326 325 324 321 319 319 317 312 309 303 297 295 295 287 278 271 265 263 262 259 254 253 251 248 246 243 243 246 247
315 322 323 324 327 328 329 329 329 328 326 324 323 322 321 321 319 319 318 317 318 316 312 307 300 300 301 297 288 279 273 272 269 260 252 249 250 249 245 243 243 244 246
312 310 309 310 312 314 318 321 323 324 322 319 319 319 318 318 317 317 317 317 318 317 317 313 308 306 306 303 297 290 286 284 278 268 256 249 245 244 244 245 244 245 243
302 299 297 298 299 302 305 309 311 314 313 313 314 314 313 313 313 314 316 317 319 318 317 313 312 311 310 306 301 298 295 292 283 274 263 255 246 244 242 244 244 242 243
Height
1477 1478 1479 1480 1482 1483 1484 1485 1486 1487 1488 1489 1490 1490 1491 1492 1492 1493 1494 1495 1495 1496 1497 1498 1498 1500 1501 1502 1503 1504 1505 1506 1506 1506 1507 1508 1508 1509 1509 1510 1510 1510 1510
1476 1477 1478 1479 1480 1481 1482 1483 1484 1485 1485 1486 1487 1487 1488 1489 1490 1490 1491 1492 1492 1493 1493 1494 1495 1496 1497 1498 1499 1500 1501 1502 1503 1502 1503 1504 1504 1505 1505 1505 1505 1505 1505
1475 1476 1477 1478 1479 1480 1480 1481 1482 1482 1483 1483 1484 1484 1485 1486 1486 1487 1488 1488 1489 1489 1490 1491 1492 1493 1493 1494 1494 1495 1497 1497 1498 1499 1499 1499 1500 1500 1501 1501 1501 1501 1501
1475 1475 1476 1477 1477 1478 1479 1479 1480 1480 1480 1481 1481 1482 1482 1483 1483 1484 1485 1485 1486 1486 1487 1488 1488 1489 1490 1490 1491 1492 1493 1493 1494 1494 1495 1496 1496 1496 1497 1496 1496 1496 1496
1474 1474 1475 1476 1476 1476 1477 1477 1478 1478 1478 1479 1479 1479 1480 1480 1480 1481 1482 1482 1483 1483 1484 1485 1485 1486 1486 1487 1487 1488 1489 1489 1490 1490 1491 1491 1491 1492 1492 1492 1492 1492 1492
1473 1473 1474 1474 1475 1475 1475 1476 1476 1476 1476 1477 1477 1477 1477 1478 1478 1479 1479 1479 1480 1481 1481 1481 1482 1482 1483 1483 1484 1484 1485 1485 1485 1486 1486 1486 1487 1488 1488 1488 1488 1487 1487
1472 1472 1472 1473 1473 1474 1474 1474 1474 1474 1474 1474 1475 1475 1475 1475 1476 1476 1477 1477 1477 1478 1478 1478 1479 1479 1479 1480 1480 1480 1481 1481 1482 1482 1482 1482 1483 1483 1484 1483 1483 1483 1483
1471 1471 1471 1471 1472 1472 1472 1472 1472 1472 1472 1472 1472 1473 1472 1473 1473 1474 1474 1474 1474 1475 1475 1475 1475 1475 1476 1476 1476 1476 1476 1477 1477 1478 1478 1478 1479 1479 1479 1480 1479 1479 1478
1470 1470 1470 1470 1470 1470 1470 1470 1470 1470 1470 1470 1470 1470 1470 1470 1471 1471 1472 1471 1471 1472 1472 1472 1472 1472 1472 1473 1473 1472 1472 1472 1473 1473 1474 1474 1474 1475 1475 1475 1474 1474 1473
1469 1469 1469 1469 1468 1468 1468 1468 1468 1468 1468 1468 1468 1468 1468 1468 1468 1469 1469 1469 1468 1468 1469 1469 1469 1469 1469 1469 1469 1469 1468 1469 1469 1469 1470 1470 1470 1470 1470 1470 1470 1470 1469
1468 1468 1468 1467 1467 1467 1467 1467 1467 1466 1466 1466 1466 1466 1465 1466 1466 1466 1466 1466 1466 1466 1465 1465 1466 1466 1466 1466 1466 1466 1465 1466 1465 1466 1466 1466 1466 1466 1466 1466 1466 1466 1465
1468 1467 1466 1466 1466 1465 1465 1465 1465 1465 1464 1464 1464 1463 1463 1463 1464 1463 1464 1464 1464 1463 1463 1462 1463 1463 1463 1463 1463 1462 1462 1462 1462 1461 1461 1461 1461 1461 1461 1461 1461 1461 1461
1466 1466 1465 1465 1464 1464 1463 1463 1463 1463 1463 1462 1462 1462 1461 1461 1461 1461 1461 1461 1461 1460 1460 1459 1459 1459 1459 1459 1459 1459 1459 1458 1458 1458 1457 1457 1458 1458 1457 1457 1457 1457 1456
1465 1464 1464 1463 1463 1462 1462 1462 1461 1461 1461 1460 1460 1460 1459 1459 1459 1458 1458 1458 1458 1457 1457 1456 1456 1456 1456 1455 1455 1455 1455 1455 1454 1454 1454 1454 1454 1453 1453 1453 1453 1452 1452
1464 1463 1462 1462 1461 1461 1460 1460 1460 1459 1459 1459 1458 1458 1457 1456 1456 1456 1455 1455 1454 1454 1453 1453 1452 1452 1451 1451 1451 1451 1451 1451 1451 1450 1450 1449 1449 1449 1449 1449 1449 1448 1447
1462 1461 1461 1460 1460 1459 1459 1458 1457 1457 1457 1456 1456 1455 1454 1454 1453 1452 1452 1451 1451 1450 1450 1449 1448 1448 1448 1448 1448 1447 1447 1447 1447 1447 1446 1446 1445 1445 1445 1444 1444 1444 1443
1460 1460 1459 1459 1458 1457 1457 1456 1455 1455 1454 1453 1453 1452 1451 1450 1450 1449 1448 1447 1447 1447 1446 1445 1444 1444 1444 1444 1444 1443 1443 1443 1443 1443 1442 1442 1441 1441 1440 1440 1439 1439 1438
1459 1458 1458 1457 1457 1456 1455 1454 1454 1452 1451 1450 1450 1449 1448 1447 1446 1445 1445 1444 1443 1442 1441 1441 1440 1440 1440 1440 1440 1439 1439 1439 1439 1438 1438 1437 1437 1436 1436 1435 1435 1434 1434
1457 1457 1456 1455 1455 1454 1454 1453 1452 1451 1449 1448 1447 1446 1445 1444 1443 1442 1441 1440 1439 1438 1437 1437 1436 1436 1436 1436 1435 1435 1435 1435 1434 1434 1434 1433 1432 1432 1431 1431 1431 1430 1429
1455 1455 1454 1453 1453 1452 1451 1450 1450 1449 1447 1446 1445 1444 1443 1441 1440 1439 1438 1437 1436 1434 1434 1433 1432 1432 1432 1431 1431 1431 1431 1430 1430 1429 1429 1428 1428 1427 1427 1426 1426 1425 1425
1453 1453 1452 1451 1450 1450 1449 1448 1447 1446 1445 1444 1443 1442 1441 1439 1438 1436 1435 1434 1432 1431 1430 1429 1428 1428 1427 1427 1427 1426 1426 1426 1425 1425 1424 1423 1423 1422 1422 1421 1421 1421 1420
1451 1451 1450 1449 1448 1448 1447 1446 1445 1444 1443 1442 1441 1440 1438 1437 1435 1433 1432 1430 1429 1428 1427 1426 1424 1424 1423 1423 1422 1422 1421 1421 1420 1420 1419 1418 1418 1417 1417 1416 1416 1416 1416
1449 1449 1448 1447 1446 1446 1445 1444 1443 1442 1441 1440 1439 1437 1436 1434 1433 1431 1429 1428 1426 1425 1424 1422 1421 1420 1419 1419 1418 1417 1417 1416 1416 1415 1414 1413 1413 1412 1412 1412 1411 1411 1411
1447 1447 1446 1445 1444 1443 1443 1442 1441 1440 1439 1438 1436 1435 1433 1432 1430 1429 1427 1425 1424 1422 1420 1419 1417 1416 1415 1414 1414 1413 1412 1412 1411 1410 1409 1409 1408 1408 1407 1407 1407 1407 1407
1445 1444 1444 1443 1442 1441 1441 1440 1439 1438 1437 1436 1434 1433 1431 1430 1428 1426 1425 1423 1421 1419 1418 1416 1414 1413 1412 1411 1410 1409 1408 1407 1406 1406 1405 1404 1404 1403 1403 1403 1403 1403 1403
1442 1442 1441 1441 1440 1439 1438 1438 1437 1436 1435 1434 1432 1431 1429 1427 1426 1424 1422 1421 1419 1417 1415 1413 1412 1410 1409 1407 1406 1405 1404 1403 1402 1402 1401 1400 1400 1400 1399 1399 1399 1399 1399